,Coso Junction,Coso Junction
,PM10_1HR,PM10_1HR
,,
Date,Value,Null Code
01-Oct-2019 00:00,18.9,
01-Oct-2019 01:00,15.5,
01-Oct-2019 02:00,17,
01-Oct-2019 03:00,16.4,
01-Oct-2019 04:00,14.7,
01-Oct-2019 05:00,12.1,
01-Oct-2019 06:00,12.2,
01-Oct-2019 07:00,13.3,
01-Oct-2019 08:00,15.6,
01-Oct-2019 09:00,11.1,
01-Oct-2019 10:00,8.9,
01-Oct-2019 11:00,9.2,
01-Oct-2019 12:00,10.1,
01-Oct-2019 13:00,14.5,
01-Oct-2019 14:00,16.2,
01-Oct-2019 15:00,17,
01-Oct-2019 16:00,16,
01-Oct-2019 17:00,18.9,
01-Oct-2019 18:00,14.5,
01-Oct-2019 19:00,16.3,
01-Oct-2019 20:00,30.5,
01-Oct-2019 21:00,14.9,
01-Oct-2019 22:00,15.2,
01-Oct-2019 23:00,27.5,
02-Oct-2019 00:00,20.4,
02-Oct-2019 01:00,15,
02-Oct-2019 02:00,12.1,
02-Oct-2019 03:00,10.5,
02-Oct-2019 04:00,10.6,
02-Oct-2019 05:00,9.7,
02-Oct-2019 06:00,10.5,
02-Oct-2019 07:00,10.8,
02-Oct-2019 08:00,10.1,
02-Oct-2019 09:00,10.1,
02-Oct-2019 10:00,9.4,
02-Oct-2019 11:00,8,
02-Oct-2019 12:00,6.5,
02-Oct-2019 13:00,12,
02-Oct-2019 14:00,16,
02-Oct-2019 15:00,12.9,
02-Oct-2019 16:00,13.5,
02-Oct-2019 17:00,14.3,
02-Oct-2019 18:00,11.6,
02-Oct-2019 19:00,12.9,
02-Oct-2019 20:00,12.4,
02-Oct-2019 21:00,12.8,
02-Oct-2019 22:00,9.2,
02-Oct-2019 23:00,12.9,
03-Oct-2019 00:00,29.5,
03-Oct-2019 01:00,28,
03-Oct-2019 02:00,12.8,
03-Oct-2019 03:00,10.8,
03-Oct-2019 04:00,18.5,
03-Oct-2019 05:00,,BL
03-Oct-2019 06:00,,BL
03-Oct-2019 07:00,12.8,
03-Oct-2019 08:00,11.4,
03-Oct-2019 09:00,15,
03-Oct-2019 10:00,23.1,
03-Oct-2019 11:00,18.5,
03-Oct-2019 12:00,18,
03-Oct-2019 13:00,17.9,
03-Oct-2019 14:00,31.2,
03-Oct-2019 15:00,34.3,
03-Oct-2019 16:00,17.3,
03-Oct-2019 17:00,16,
03-Oct-2019 18:00,22.3,
03-Oct-2019 19:00,19.4,
03-Oct-2019 20:00,24.9,
03-Oct-2019 21:00,22.4,
03-Oct-2019 22:00,21.7,
03-Oct-2019 23:00,23.3,
04-Oct-2019 00:00,20.1,
04-Oct-2019 01:00,21,
04-Oct-2019 02:00,16.8,
04-Oct-2019 03:00,16.7,
04-Oct-2019 04:00,16.2,
04-Oct-2019 05:00,17,
04-Oct-2019 06:00,23.8,
04-Oct-2019 07:00,17.7,
04-Oct-2019 08:00,17.6,
04-Oct-2019 09:00,17.7,
04-Oct-2019 10:00,12.7,
04-Oct-2019 11:00,12,
04-Oct-2019 12:00,14.4,
04-Oct-2019 13:00,18.6,
04-Oct-2019 14:00,16.2,
04-Oct-2019 15:00,17.8,
04-Oct-2019 16:00,19.9,
04-Oct-2019 17:00,27.9,
04-Oct-2019 18:00,17.6,
04-Oct-2019 19:00,16.3,
04-Oct-2019 20:00,16.5,
04-Oct-2019 21:00,16.1,
04-Oct-2019 22:00,16.1,
04-Oct-2019 23:00,13.6,
05-Oct-2019 00:00,21.4,
05-Oct-2019 01:00,31.4,
05-Oct-2019 02:00,17.9,
05-Oct-2019 03:00,18.2,
05-Oct-2019 04:00,20.1,
05-Oct-2019 05:00,15.3,
05-Oct-2019 06:00,16.3,
05-Oct-2019 07:00,17,
05-Oct-2019 08:00,21.2,
05-Oct-2019 09:00,13.1,
05-Oct-2019 10:00,10.5,
05-Oct-2019 11:00,13.4,
05-Oct-2019 12:00,18.4,
05-Oct-2019 13:00,15.9,
05-Oct-2019 14:00,16.8,
05-Oct-2019 15:00,18.7,
05-Oct-2019 16:00,23.4,
05-Oct-2019 17:00,17.5,
05-Oct-2019 18:00,17.7,
05-Oct-2019 19:00,17.6,
05-Oct-2019 20:00,16.9,
05-Oct-2019 21:00,16.3,
05-Oct-2019 22:00,14.7,
05-Oct-2019 23:00,18.2,
06-Oct-2019 00:00,18.5,
06-Oct-2019 01:00,17.1,
06-Oct-2019 02:00,22.4,
06-Oct-2019 03:00,16.1,
06-Oct-2019 04:00,16.5,
06-Oct-2019 05:00,15.2,
06-Oct-2019 06:00,13.9,
06-Oct-2019 07:00,14,
06-Oct-2019 08:00,15.1,
06-Oct-2019 09:00,16.4,
06-Oct-2019 10:00,13.9,
06-Oct-2019 11:00,8.9,
06-Oct-2019 12:00,7.2,
06-Oct-2019 13:00,9.3,
06-Oct-2019 14:00,11.2,
06-Oct-2019 15:00,9.2,
06-Oct-2019 16:00,11.2,
06-Oct-2019 17:00,16.5,
06-Oct-2019 18:00,14.9,
06-Oct-2019 19:00,10.9,
06-Oct-2019 20:00,9.6,
06-Oct-2019 21:00,9.6,
06-Oct-2019 22:00,11.7,
06-Oct-2019 23:00,9.9,
07-Oct-2019 00:00,11.2,
07-Oct-2019 01:00,8.8,
07-Oct-2019 02:00,8.5,
07-Oct-2019 03:00,13.6,
07-Oct-2019 04:00,56.3,
07-Oct-2019 05:00,27.5,
07-Oct-2019 06:00,10.1,
07-Oct-2019 07:00,12.7,
07-Oct-2019 08:00,14.3,
07-Oct-2019 09:00,12.7,
07-Oct-2019 10:00,9.7,
07-Oct-2019 11:00,9.6,
07-Oct-2019 12:00,9.7,
07-Oct-2019 13:00,10.5,
07-Oct-2019 14:00,9.9,
07-Oct-2019 15:00,11.6,
07-Oct-2019 16:00,15.6,
07-Oct-2019 17:00,32.3,
07-Oct-2019 18:00,13.7,
07-Oct-2019 19:00,11.4,
07-Oct-2019 20:00,12.6,
07-Oct-2019 21:00,13.7,
07-Oct-2019 22:00,41.7,
07-Oct-2019 23:00,12.4,
08-Oct-2019 00:00,18.8,
08-Oct-2019 01:00,14.9,
08-Oct-2019 02:00,13.5,
08-Oct-2019 03:00,14.9,
08-Oct-2019 04:00,12.7,
08-Oct-2019 05:00,13.2,
08-Oct-2019 06:00,13,
08-Oct-2019 07:00,14.7,
08-Oct-2019 08:00,19,
08-Oct-2019 09:00,13.8,
08-Oct-2019 10:00,11.8,
08-Oct-2019 11:00,10.5,
08-Oct-2019 12:00,14.3,
08-Oct-2019 13:00,16.7,
08-Oct-2019 14:00,30.3,
08-Oct-2019 15:00,30,
08-Oct-2019 16:00,23.8,
08-Oct-2019 17:00,12.7,
08-Oct-2019 18:00,21.5,
08-Oct-2019 19:00,16.4,
08-Oct-2019 20:00,8.3,
08-Oct-2019 21:00,10.4,
08-Oct-2019 22:00,38.3,
08-Oct-2019 23:00,12.6,
09-Oct-2019 00:00,12.9,
09-Oct-2019 01:00,12.5,
09-Oct-2019 02:00,6.3,
09-Oct-2019 03:00,5.3,
09-Oct-2019 04:00,9.1,
09-Oct-2019 05:00,13.4,
09-Oct-2019 06:00,10.7,
09-Oct-2019 07:00,13.1,
09-Oct-2019 08:00,8.7,
09-Oct-2019 09:00,6.5,
09-Oct-2019 10:00,7.9,
09-Oct-2019 11:00,23.8,
09-Oct-2019 12:00,31.4,
09-Oct-2019 13:00,33.3,
09-Oct-2019 14:00,35.8,
09-Oct-2019 15:00,30.3,
09-Oct-2019 16:00,31.6,
09-Oct-2019 17:00,20.9,
09-Oct-2019 18:00,87.7,
09-Oct-2019 19:00,151.5,
09-Oct-2019 20:00,230,
09-Oct-2019 21:00,342.2,
09-Oct-2019 22:00,226.5,
09-Oct-2019 23:00,221.4,
10-Oct-2019 00:00,229,
10-Oct-2019 01:00,178.7,
10-Oct-2019 02:00,116,
10-Oct-2019 03:00,49.4,
10-Oct-2019 04:00,34.1,
10-Oct-2019 05:00,23.5,
10-Oct-2019 06:00,20.1,
10-Oct-2019 07:00,42.3,
10-Oct-2019 08:00,23.4,
10-Oct-2019 09:00,14.9,
10-Oct-2019 10:00,12.2,
10-Oct-2019 11:00,5.4,
10-Oct-2019 12:00,7.5,
10-Oct-2019 13:00,4.7,
10-Oct-2019 14:00,8.8,
10-Oct-2019 15:00,8.2,
10-Oct-2019 16:00,6.9,
10-Oct-2019 17:00,8.2,
10-Oct-2019 18:00,8.3,
10-Oct-2019 19:00,9.6,
10-Oct-2019 20:00,8.9,
10-Oct-2019 21:00,12.2,
10-Oct-2019 22:00,7.1,
10-Oct-2019 23:00,11.7,
11-Oct-2019 00:00,10.2,
11-Oct-2019 01:00,9.1,
11-Oct-2019 02:00,7.4,
11-Oct-2019 03:00,11.7,
11-Oct-2019 04:00,8.8,
11-Oct-2019 05:00,11.2,
11-Oct-2019 06:00,7.7,
11-Oct-2019 07:00,2.9,
11-Oct-2019 08:00,9.6,
11-Oct-2019 09:00,4.4,
11-Oct-2019 10:00,7.7,
11-Oct-2019 11:00,4.7,
11-Oct-2019 12:00,2.7,
11-Oct-2019 13:00,3.1,
11-Oct-2019 14:00,13.4,
11-Oct-2019 15:00,7.3,
11-Oct-2019 16:00,8.6,
11-Oct-2019 17:00,8.2,
11-Oct-2019 18:00,8.2,
11-Oct-2019 19:00,7.6,
11-Oct-2019 20:00,7.5,
11-Oct-2019 21:00,6.4,
11-Oct-2019 22:00,5.7,
11-Oct-2019 23:00,27.8,
12-Oct-2019 00:00,9.8,
12-Oct-2019 01:00,10.4,
12-Oct-2019 02:00,27.2,
12-Oct-2019 03:00,18,
12-Oct-2019 04:00,5.4,
12-Oct-2019 05:00,9.5,
12-Oct-2019 06:00,6.4,
12-Oct-2019 07:00,9.1,
12-Oct-2019 08:00,11.8,
12-Oct-2019 09:00,5.2,
12-Oct-2019 10:00,5.5,
12-Oct-2019 11:00,3,
12-Oct-2019 12:00,7.7,
12-Oct-2019 13:00,8.2,
12-Oct-2019 14:00,8.5,
12-Oct-2019 15:00,8.6,
12-Oct-2019 16:00,10.6,
12-Oct-2019 17:00,21.1,
12-Oct-2019 18:00,7.9,
12-Oct-2019 19:00,7.5,
12-Oct-2019 20:00,9.7,
12-Oct-2019 21:00,6.7,
12-Oct-2019 22:00,7.1,
12-Oct-2019 23:00,6.9,
13-Oct-2019 00:00,8.8,
13-Oct-2019 01:00,6.2,
13-Oct-2019 02:00,8.8,
13-Oct-2019 03:00,6.1,
13-Oct-2019 04:00,16,
13-Oct-2019 05:00,10,
13-Oct-2019 06:00,12.4,
13-Oct-2019 07:00,8.6,
13-Oct-2019 08:00,4.4,
13-Oct-2019 09:00,8.6,
13-Oct-2019 10:00,6.7,
13-Oct-2019 11:00,12.1,
13-Oct-2019 12:00,21.4,
13-Oct-2019 13:00,26,
13-Oct-2019 14:00,17.4,
13-Oct-2019 15:00,21.3,
13-Oct-2019 16:00,18.8,
13-Oct-2019 17:00,26.3,
13-Oct-2019 18:00,16.2,
13-Oct-2019 19:00,15.8,
13-Oct-2019 20:00,19.2,
13-Oct-2019 21:00,16.7,
13-Oct-2019 22:00,18.3,
13-Oct-2019 23:00,18.7,
14-Oct-2019 00:00,19.7,
14-Oct-2019 01:00,18.5,
14-Oct-2019 02:00,21.9,
14-Oct-2019 03:00,17.2,
14-Oct-2019 04:00,15.9,
14-Oct-2019 05:00,17.1,
14-Oct-2019 06:00,19.2,
14-Oct-2019 07:00,20,
14-Oct-2019 08:00,19.3,
14-Oct-2019 09:00,18.6,
14-Oct-2019 10:00,22.1,
14-Oct-2019 11:00,21.4,
14-Oct-2019 12:00,19.7,
14-Oct-2019 13:00,18.9,
14-Oct-2019 14:00,15.8,
14-Oct-2019 15:00,23.1,
14-Oct-2019 16:00,21.8,
14-Oct-2019 17:00,19.2,
14-Oct-2019 18:00,19.2,
14-Oct-2019 19:00,18.3,
14-Oct-2019 20:00,19.4,
14-Oct-2019 21:00,17.6,
14-Oct-2019 22:00,17.7,
14-Oct-2019 23:00,18.1,
15-Oct-2019 00:00,15.6,
15-Oct-2019 01:00,16.7,
15-Oct-2019 02:00,18.6,
15-Oct-2019 03:00,12.9,
15-Oct-2019 04:00,16.7,
15-Oct-2019 05:00,12.8,
15-Oct-2019 06:00,16.6,
15-Oct-2019 07:00,16.7,
15-Oct-2019 08:00,15.2,
15-Oct-2019 09:00,16.6,
15-Oct-2019 10:00,18.9,
15-Oct-2019 11:00,11.7,
15-Oct-2019 12:00,9.7,
15-Oct-2019 13:00,15.6,
15-Oct-2019 14:00,19.5,
15-Oct-2019 15:00,15.6,
15-Oct-2019 16:00,15.2,
15-Oct-2019 17:00,13.4,
15-Oct-2019 18:00,13.5,
15-Oct-2019 19:00,12.6,
15-Oct-2019 20:00,12.7,
15-Oct-2019 21:00,14.8,
15-Oct-2019 22:00,6.2,
15-Oct-2019 23:00,11.6,
16-Oct-2019 00:00,9.8,
16-Oct-2019 01:00,12.1,
16-Oct-2019 02:00,9.5,
16-Oct-2019 03:00,15.1,
16-Oct-2019 04:00,29,
16-Oct-2019 05:00,28.3,
16-Oct-2019 06:00,12.9,
16-Oct-2019 07:00,,AX
16-Oct-2019 08:00,,AX
16-Oct-2019 09:00,11.3,
16-Oct-2019 10:00,10,
16-Oct-2019 11:00,11.8,
16-Oct-2019 12:00,11.4,
16-Oct-2019 13:00,13.1,
16-Oct-2019 14:00,11.2,
16-Oct-2019 15:00,8.4,
16-Oct-2019 16:00,8.5,
16-Oct-2019 17:00,9.7,
16-Oct-2019 18:00,10.8,
16-Oct-2019 19:00,30.1,
16-Oct-2019 20:00,11.6,
16-Oct-2019 21:00,11.2,
16-Oct-2019 22:00,13.7,
16-Oct-2019 23:00,15.8,
17-Oct-2019 00:00,15.3,
17-Oct-2019 01:00,13.8,
17-Oct-2019 02:00,13.4,
17-Oct-2019 03:00,12.4,
17-Oct-2019 04:00,21.2,
17-Oct-2019 05:00,33.2,
17-Oct-2019 06:00,25.2,
17-Oct-2019 07:00,26.9,
17-Oct-2019 08:00,34.9,
17-Oct-2019 09:00,30.8,
17-Oct-2019 10:00,18.5,
17-Oct-2019 11:00,18,
17-Oct-2019 12:00,42.5,
17-Oct-2019 13:00,59.3,
17-Oct-2019 14:00,16.4,
17-Oct-2019 15:00,25.5,
17-Oct-2019 16:00,303.2,
17-Oct-2019 17:00,73,
17-Oct-2019 18:00,20,
17-Oct-2019 19:00,20.4,
17-Oct-2019 20:00,18.4,
17-Oct-2019 21:00,30.1,
17-Oct-2019 22:00,23.7,
17-Oct-2019 23:00,26.8,
18-Oct-2019 00:00,25,
18-Oct-2019 01:00,8.1,
18-Oct-2019 02:00,8.4,
18-Oct-2019 03:00,8.6,
18-Oct-2019 04:00,11.4,
18-Oct-2019 05:00,7.5,
18-Oct-2019 06:00,9.3,
18-Oct-2019 07:00,8.1,
18-Oct-2019 08:00,7.2,
18-Oct-2019 09:00,6.8,
18-Oct-2019 10:00,5.2,
18-Oct-2019 11:00,1,
18-Oct-2019 12:00,2.8,
18-Oct-2019 13:00,6.2,
18-Oct-2019 14:00,12.8,
18-Oct-2019 15:00,14.5,
18-Oct-2019 16:00,12.4,
18-Oct-2019 17:00,19.7,
18-Oct-2019 18:00,33.7,
18-Oct-2019 19:00,15,
18-Oct-2019 20:00,14.3,
18-Oct-2019 21:00,16.5,
18-Oct-2019 22:00,13.3,
18-Oct-2019 23:00,14.8,
19-Oct-2019 00:00,12.7,
19-Oct-2019 01:00,13.3,
19-Oct-2019 02:00,10.5,
19-Oct-2019 03:00,11.4,
19-Oct-2019 04:00,9.7,
19-Oct-2019 05:00,11.1,
19-Oct-2019 06:00,9.4,
19-Oct-2019 07:00,11.6,
19-Oct-2019 08:00,10.5,
19-Oct-2019 09:00,11.3,
19-Oct-2019 10:00,9.9,
19-Oct-2019 11:00,7.9,
19-Oct-2019 12:00,14.1,
19-Oct-2019 13:00,10.1,
19-Oct-2019 14:00,12.1,
19-Oct-2019 15:00,12.8,
19-Oct-2019 16:00,12.5,
19-Oct-2019 17:00,13.1,
19-Oct-2019 18:00,16.5,
19-Oct-2019 19:00,14.7,
19-Oct-2019 20:00,14.8,
19-Oct-2019 21:00,14.5,
19-Oct-2019 22:00,13.6,
19-Oct-2019 23:00,11,
20-Oct-2019 00:00,12.4,
20-Oct-2019 01:00,11.6,
20-Oct-2019 02:00,9.1,
20-Oct-2019 03:00,10.8,
20-Oct-2019 04:00,10.5,
20-Oct-2019 05:00,11.8,
20-Oct-2019 06:00,11.4,
20-Oct-2019 07:00,16.4,
20-Oct-2019 08:00,16,
20-Oct-2019 09:00,11.7,
20-Oct-2019 10:00,10.5,
20-Oct-2019 11:00,7.2,
20-Oct-2019 12:00,6.8,
20-Oct-2019 13:00,7.4,
20-Oct-2019 14:00,6.9,
20-Oct-2019 15:00,5.7,
20-Oct-2019 16:00,7.4,
20-Oct-2019 17:00,9.3,
20-Oct-2019 18:00,9.4,
20-Oct-2019 19:00,8.8,
20-Oct-2019 20:00,9.7,
20-Oct-2019 21:00,10.8,
20-Oct-2019 22:00,10.3,
20-Oct-2019 23:00,16.3,
21-Oct-2019 00:00,16.1,
21-Oct-2019 01:00,9.8,
21-Oct-2019 02:00,7.2,
21-Oct-2019 03:00,15.5,
21-Oct-2019 04:00,8.9,
21-Oct-2019 05:00,9.1,
21-Oct-2019 06:00,9.3,
21-Oct-2019 07:00,10.6,
21-Oct-2019 08:00,8.6,
21-Oct-2019 09:00,11.4,
21-Oct-2019 10:00,8.4,
21-Oct-2019 11:00,8.8,
21-Oct-2019 12:00,9.6,
21-Oct-2019 13:00,8.9,
21-Oct-2019 14:00,8.5,
21-Oct-2019 15:00,8.1,
21-Oct-2019 16:00,6.8,
21-Oct-2019 17:00,11.7,
21-Oct-2019 18:00,13,
21-Oct-2019 19:00,9.1,
21-Oct-2019 20:00,9.1,
21-Oct-2019 21:00,12,
21-Oct-2019 22:00,16.5,
21-Oct-2019 23:00,8.8,
22-Oct-2019 00:00,6.7,
22-Oct-2019 01:00,5.5,
22-Oct-2019 02:00,5.9,
22-Oct-2019 03:00,7.9,
22-Oct-2019 04:00,8.3,
22-Oct-2019 05:00,7.3,
22-Oct-2019 06:00,8.4,
22-Oct-2019 07:00,10.9,
22-Oct-2019 08:00,10,
22-Oct-2019 09:00,10.1,
22-Oct-2019 10:00,6.6,
22-Oct-2019 11:00,4.9,
22-Oct-2019 12:00,3.8,
22-Oct-2019 13:00,5.9,
22-Oct-2019 14:00,6.8,
22-Oct-2019 15:00,4.1,
22-Oct-2019 16:00,4.7,
22-Oct-2019 17:00,5.8,
22-Oct-2019 18:00,7.2,
22-Oct-2019 19:00,6.8,
22-Oct-2019 20:00,48,
22-Oct-2019 21:00,7.9,
22-Oct-2019 22:00,8.3,
22-Oct-2019 23:00,8,
23-Oct-2019 00:00,5.2,
23-Oct-2019 01:00,6.2,
23-Oct-2019 02:00,5.3,
23-Oct-2019 03:00,7.5,
23-Oct-2019 04:00,8.2,
23-Oct-2019 05:00,7.7,
23-Oct-2019 06:00,7.5,
23-Oct-2019 07:00,9.7,
23-Oct-2019 08:00,10,
23-Oct-2019 09:00,12.5,
23-Oct-2019 10:00,11.3,
23-Oct-2019 11:00,8.5,
23-Oct-2019 12:00,8,
23-Oct-2019 13:00,5.8,
23-Oct-2019 14:00,6,
23-Oct-2019 15:00,5,
23-Oct-2019 16:00,5.1,
23-Oct-2019 17:00,7.3,
23-Oct-2019 18:00,10.9,
23-Oct-2019 19:00,9.2,
23-Oct-2019 20:00,9.3,
23-Oct-2019 21:00,9.5,
23-Oct-2019 22:00,10.4,
23-Oct-2019 23:00,11.2,
24-Oct-2019 00:00,12.4,
24-Oct-2019 01:00,12.1,
24-Oct-2019 02:00,9.6,
24-Oct-2019 03:00,10.1,
24-Oct-2019 04:00,8.5,
24-Oct-2019 05:00,8.8,
24-Oct-2019 06:00,10.8,
24-Oct-2019 07:00,11.2,
24-Oct-2019 08:00,15.4,
24-Oct-2019 09:00,,BL
24-Oct-2019 10:00,,BL
24-Oct-2019 11:00,6,
24-Oct-2019 12:00,6.1,
24-Oct-2019 13:00,5.9,
24-Oct-2019 14:00,3.7,
24-Oct-2019 15:00,4.2,
24-Oct-2019 16:00,6.7,
24-Oct-2019 17:00,12,
24-Oct-2019 18:00,24.8,
24-Oct-2019 19:00,7.3,
24-Oct-2019 20:00,9.1,
24-Oct-2019 21:00,11.4,
24-Oct-2019 22:00,21.2,
24-Oct-2019 23:00,7.3,
25-Oct-2019 00:00,7.9,
25-Oct-2019 01:00,6.8,
25-Oct-2019 02:00,8,
25-Oct-2019 03:00,8.9,
25-Oct-2019 04:00,8.7,
25-Oct-2019 05:00,8.2,
25-Oct-2019 06:00,12.7,
25-Oct-2019 07:00,9.4,
25-Oct-2019 08:00,8.6,
25-Oct-2019 09:00,8.6,
25-Oct-2019 10:00,6.3,
25-Oct-2019 11:00,5.2,
25-Oct-2019 12:00,8,
25-Oct-2019 13:00,8,
25-Oct-2019 14:00,8,
25-Oct-2019 15:00,10.2,
25-Oct-2019 16:00,10.9,
25-Oct-2019 17:00,9.1,
25-Oct-2019 18:00,8.5,
25-Oct-2019 19:00,15.1,
25-Oct-2019 20:00,9.8,
25-Oct-2019 21:00,9,
25-Oct-2019 22:00,6.8,
25-Oct-2019 23:00,8.4,
26-Oct-2019 00:00,8.3,
26-Oct-2019 01:00,7.4,
26-Oct-2019 02:00,8.5,
26-Oct-2019 03:00,10.9,
26-Oct-2019 04:00,8.5,
26-Oct-2019 05:00,8.6,
26-Oct-2019 06:00,9,
26-Oct-2019 07:00,11.8,
26-Oct-2019 08:00,8.2,
26-Oct-2019 09:00,7.2,
26-Oct-2019 10:00,8.9,
26-Oct-2019 11:00,6,
26-Oct-2019 12:00,5.9,
26-Oct-2019 13:00,7.2,
26-Oct-2019 14:00,10.7,
26-Oct-2019 15:00,19,
26-Oct-2019 16:00,13.4,
26-Oct-2019 17:00,14.1,
26-Oct-2019 18:00,15.8,
26-Oct-2019 19:00,15.9,
26-Oct-2019 20:00,19,
26-Oct-2019 21:00,23.1,
26-Oct-2019 22:00,21.2,
26-Oct-2019 23:00,20.2,
27-Oct-2019 00:00,12.4,
27-Oct-2019 01:00,11.2,
27-Oct-2019 02:00,9,
27-Oct-2019 03:00,25.7,
27-Oct-2019 04:00,301.8,
27-Oct-2019 05:00,528.8,
27-Oct-2019 06:00,569.1,
27-Oct-2019 07:00,356.4,
27-Oct-2019 08:00,226.5,
27-Oct-2019 09:00,144.6,
27-Oct-2019 10:00,121.1,
27-Oct-2019 11:00,90.4,
27-Oct-2019 12:00,64.2,
27-Oct-2019 13:00,56,
27-Oct-2019 14:00,107.7,
27-Oct-2019 15:00,268.7,
27-Oct-2019 16:00,188.6,
27-Oct-2019 17:00,32.6,
27-Oct-2019 18:00,26.4,
27-Oct-2019 19:00,24.6,
27-Oct-2019 20:00,17.2,
27-Oct-2019 21:00,17.6,
27-Oct-2019 22:00,7.7,
27-Oct-2019 23:00,8.4,
28-Oct-2019 00:00,8.2,
28-Oct-2019 01:00,10.4,
28-Oct-2019 02:00,9,
28-Oct-2019 03:00,9.9,
28-Oct-2019 04:00,9.9,
28-Oct-2019 05:00,10.3,
28-Oct-2019 06:00,9.8,
28-Oct-2019 07:00,14.7,
28-Oct-2019 08:00,9,
28-Oct-2019 09:00,6.7,
28-Oct-2019 10:00,7.8,
28-Oct-2019 11:00,6.7,
28-Oct-2019 12:00,8,
28-Oct-2019 13:00,7.7,
28-Oct-2019 14:00,11.9,
28-Oct-2019 15:00,6.5,
28-Oct-2019 16:00,15.3,
28-Oct-2019 17:00,8.2,
28-Oct-2019 18:00,6,
28-Oct-2019 19:00,10.1,
28-Oct-2019 20:00,7.7,
28-Oct-2019 21:00,7.2,
28-Oct-2019 22:00,6.7,
28-Oct-2019 23:00,5,
29-Oct-2019 00:00,9,
29-Oct-2019 01:00,10.2,
29-Oct-2019 02:00,7.4,
29-Oct-2019 03:00,20,
29-Oct-2019 04:00,10.4,
29-Oct-2019 05:00,12.2,
29-Oct-2019 06:00,10.5,
29-Oct-2019 07:00,12.1,
29-Oct-2019 08:00,19.2,
29-Oct-2019 09:00,7.9,
29-Oct-2019 10:00,8.8,
29-Oct-2019 11:00,11.4,
29-Oct-2019 12:00,9.6,
29-Oct-2019 13:00,15.6,
29-Oct-2019 14:00,15.7,
29-Oct-2019 15:00,13.6,
29-Oct-2019 16:00,24.3,
29-Oct-2019 17:00,13.6,
29-Oct-2019 18:00,37.2,
29-Oct-2019 19:00,42.7,
29-Oct-2019 20:00,38.4,
29-Oct-2019 21:00,28.5,
29-Oct-2019 22:00,21.5,
29-Oct-2019 23:00,18.7,
30-Oct-2019 00:00,20.7,
30-Oct-2019 01:00,24.3,
30-Oct-2019 02:00,25.9,
30-Oct-2019 03:00,27,
30-Oct-2019 04:00,31.7,
30-Oct-2019 05:00,36.2,
30-Oct-2019 06:00,45,
30-Oct-2019 07:00,46.2,
30-Oct-2019 08:00,49.7,
30-Oct-2019 09:00,45.4,
30-Oct-2019 10:00,36.5,
30-Oct-2019 11:00,22.4,
30-Oct-2019 12:00,24.5,
30-Oct-2019 13:00,29.1,
30-Oct-2019 14:00,30.6,
30-Oct-2019 15:00,19.6,
30-Oct-2019 16:00,15.7,
30-Oct-2019 17:00,17.7,
30-Oct-2019 18:00,17.3,
30-Oct-2019 19:00,15,
30-Oct-2019 20:00,15.6,
30-Oct-2019 21:00,15.4,
30-Oct-2019 22:00,18,
30-Oct-2019 23:00,17.1,
31-Oct-2019 00:00,13,
31-Oct-2019 01:00,17.2,
31-Oct-2019 02:00,31.6,
31-Oct-2019 03:00,16.5,
31-Oct-2019 04:00,13.8,
31-Oct-2019 05:00,15.3,
31-Oct-2019 06:00,17.9,
31-Oct-2019 07:00,18.5,
31-Oct-2019 08:00,,AX
31-Oct-2019 09:00,19.6,
31-Oct-2019 10:00,15,
31-Oct-2019 11:00,15.4,
31-Oct-2019 12:00,15.6,
31-Oct-2019 13:00,11.9,
31-Oct-2019 14:00,13.8,
31-Oct-2019 15:00,16,
31-Oct-2019 16:00,14.1,
31-Oct-2019 17:00,11.8,
31-Oct-2019 18:00,13.5,
31-Oct-2019 19:00,13.9,
31-Oct-2019 20:00,40.5,
31-Oct-2019 21:00,15,
31-Oct-2019 22:00,11.4,
31-Oct-2019 23:00,9.6,
